Location: Hawks Ness
(60.2333°N, 1.1667°W)
Time: 16:55:35
(UTC+00:00)

SL-14 R/B - Pass Details

Date: 22 October 2019
Orbit: 518 x 555 km, 82.4° (Epoch: 11 November)

Event Time Altitude Azimuth Distance (km) Brightness Sun altitude
Rises 05:38:23 0° 177° (S) 2,675 6.9 -10.8°
Reaches altitude 10° 05:40:34 10° 172° (S) 1,782 6.1 -10.6°
Maximum altitude 05:44:21 50° 97° (E) 683 4.3 -10.1°
Drops below altitude 10° 05:48:08 10° 22° (NNE) 1,778 6.1 -9.6°
Sets 05:50:18 0° 17° (NNE) 2,668 7.0 -9.4°
